Zurück zum Katalog

SCOUT A R/B

AktivPO
NORAD 2120·ROCKET BODY·🇺🇸 United States

Gestartet Mar 26, 1966 von Vandenberg Space Force Base

Loading…

Nächste Überflüge (nächste 24 Stunden)

TLE

AktuellSource: Space-Track

Epoche: Sep 14, 2026, 04:10 UTC

1 02120U 66024B   26257.17390464  .00000072  00000-0  62934-4 0  9996
2 02120  89.8198 170.1973 0150508 308.8973  49.8846 13.72659902 24116

Verfolge SCOUT A R/B in Echtzeit mit AllMySat

Download on the App Store